FW4370 Weather Reports


Display with metric or nautical units.
time (UTC)temp
F
wind
direction
speed
MPH
gust
MPH
rain 1hr
in
rain 24hr
in
rain mn
in
humidity
%
barometer
mb
20260905103036 66 278 0.0 1.0 0.00 0.00 0.00 35 1008.2
20260905101539 66 277 0.0 2.0 0.00 0.00 0.00 34 1008.2
20260905100031 65 271 0.0 0.0 0.00 0.00 0.00 34 1008.2
20260905094529 64 271 0.0 0.0 0.00 0.00 0.00 33 1008.2
20260905093027 64 271 0.0 0.0 0.00 0.00 0.00 32 1008.2
20260905091523 65 271 0.0 0.0 0.00 0.00 0.00 32 1008.2
20260905090018 67 271 0.0 1.0 0.00 0.00 0.00 32 1008.1
20260905084543 67 271 0.0 1.0 0.00 0.00 0.00 32 1008.2
20260905083017 68 268 0.0 1.0 0.00 0.00 0.00 32 1008.3
20260905081509 68 261 0.0 3.0 0.00 0.00 0.00 32 1008.5
20260905080007 68 266 0.0 3.0 0.00 0.00 0.00 32 1008.5
20260905074505 68 264 0.0 2.0 0.00 0.00 0.00 33 1008.5
20260905073007 68 263 0.0 3.0 0.00 0.00 0.00 33 1008.4
20260905071603 68 264 0.0 3.0 0.00 0.00 0.00 33 1008.4
20260905070104 68 258 0.0 2.0 0.00 0.00 0.00 33 1008.2
20260905064554 68 237 0.0 3.0 0.00 0.00 0.00 34 1008.3
20260905063055 69 231 0.0 3.0 0.00 0.00 0.00 34 1008.2
20260905061602 69 226 0.0 3.0 0.00 0.00 0.00 35 1008.1
20260905060047 70 243 0.0 3.0 0.00 0.00 0.00 35 1007.9
20260905054546 71 242 0.0 4.0 0.00 0.00 0.00 37 1007.9
20260905053043 71 233 3.0 7.0 0.00 0.00 0.00 38 1007.8
20260905051542 71 233 1.0 6.0 0.00 0.00 0.00 38 1007.7
20260905050040 71 232 1.0 6.0 0.00 0.00 0.00 39 1007.6
20260905044538 71 229 1.0 3.0 0.00 0.00 0.00 39 1007.5
20260905043034 72 244 1.0 6.0 0.00 0.00 0.00 38 1007.6
20260905041532 74 210 3.0 10.0 0.00 0.00 0.00 38 1007.4
20260905040032 74 224 2.0 7.0 0.00 0.00 0.00 38 1007.2
20260905034530 73 224 2.0 10.0 0.00 0.00 0.00 38 1007.1
20260905033027 73 245 3.0 8.0 0.00 0.00 0.00 37 1006.9
20260905031532 73 229 1.0 5.0 0.00 0.00 0.00 37 1006.8
20260905030030 73 217 1.0 5.0 0.00 0.00 0.00 36 1006.6
20260905024521 73 240 3.0 7.0 0.00 0.00 0.00 35 1006.4
20260905023029 73 221 1.0 5.0 0.00 0.00 0.00 34 1006.3
20260905021520 74 223 2.0 5.0 0.00 0.00 0.00 33 1006.2
20260905020017 75 225 2.0 6.0 0.00 0.00 0.00 32 1006.1
20260905014514 76 246 1.0 8.0 0.00 0.00 0.00 31 1006.0
20260905013012 77 240 4.0 13.0 0.00 0.00 0.00 31 1006.0
20260905011512 78 209 4.0 10.0 0.00 0.00 0.00 30 1005.9
20260905010009 80 219 6.0 16.0 0.00 0.00 0.00 31 1005.8
20260905004508 80 181 6.0 14.0 0.00 0.00 0.00 31 1005.8
20260905003006 81 204 6.0 14.0 0.00 0.00 0.00 31 1005.9
20260905001504 81 231 8.0 18.0 0.00 0.00 0.00 32 1006.0
20260905000002 82 214 6.0 15.0 0.00 0.00 0.00 32 1005.9
20260904234559 81 249 8.0 14.0 0.00 0.00 0.00 33 1005.9
20260904233104 79 217 6.0 14.0 0.00 0.00 0.00 32 1006.0
20260904231554 79 195 7.0 14.0 0.00 0.00 0.00 32 1006.0
20260904230053 80 159 7.0 19.0 0.00 0.00 0.00 32 1006.0
20260904224551 81 281 7.0 16.0 0.00 0.00 0.00 32 1006.1
20260904223048 80 255 7.0 15.0 0.00 0.00 0.00 31 1006.0
20260904221548 81 224 4.0 17.0 0.00 0.00 0.00 31 1006.1
20260904220045 82 225 6.0 18.0 0.00 0.00 0.00 31 1006.2
20260904214547 82 224 11.0 19.0 0.00 0.00 0.00 31 1006.2
20260904213040 82 229 9.0 22.0 0.00 0.00 0.00 32 1006.4
20260904211538 82 225 9.0 19.0 0.00 0.00 0.00 33 1006.4
20260904210040 82 219 9.0 18.0 0.00 0.00 0.00 34 1006.4
20260904204532 82 236 9.0 18.0 0.00 0.00 0.00 35 1006.6
20260904203032 81 269 9.0 21.0 0.00 0.00 0.00 35 1006.5
20260904201527 82 226 8.0 23.0 0.00 0.00 0.00 36 1006.6
20260904200030 80 238 8.0 19.0 0.00 0.00 0.00 36 1006.8
20260904194523 80 204 6.0 20.0 0.00 0.00 0.00 37 1006.8
20260904193025 82 213 6.0 20.0 0.00 0.00 0.00 37 1007.0
20260904191520 82 191 4.0 16.0 0.00 0.00 0.00 38 1007.1
20260904190017 80 203 6.0 14.0 0.00 0.00 0.00 39 1007.3
20260904184521 80 194 4.0 16.0 0.00 0.00 0.00 39 1007.3
20260904183011 80 202 7.0 16.0 0.00 0.00 0.00 40 1007.5
20260904181508 80 240 7.0 14.0 0.00 0.00 0.00 40 1007.7
20260904180006 79 193 6.0 15.0 0.00 0.00 0.00 42 1007.9
20260904174503 79 274 7.0 18.0 0.00 0.00 0.00 43 1007.9
20260904173103 78 217 5.0 15.0 0.00 0.00 0.00 44 1007.9
20260904171600 78 197 5.0 15.0 0.00 0.00 0.00 46 1008.0
20260904170052 77 183 5.0 14.0 0.00 0.00 0.00 47 1007.8
20260904164549 77 229 9.0 17.0 0.00 0.00 0.00 49 1007.8
20260904163050 76 226 7.0 14.0 0.00 0.00 0.00 50 1007.7
20260904161540 75 212 7.0 17.0 0.00 0.00 0.00 51 1007.6
20260904160041 74 163 7.0 14.0 0.00 0.00 0.00 52 1007.7
20260904154533 74 138 7.0 13.0 0.00 0.00 0.00 53 1007.6
20260904153036 74 153 6.0 14.0 0.00 0.00 0.00 55 1007.5
20260904151525 73 212 7.0 15.0 0.00 0.00 0.00 57 1007.4
20260904150020 72 210 5.0 11.0 0.00 0.00 0.00 58 1007.5
20260904144514 71 158 4.0 12.0 0.00 0.00 0.00 59 1007.5
20260904143012 70 129 2.0 8.0 0.00 0.00 0.00 59 1007.2
20260904141504 69 170 4.0 10.0 0.00 0.00 0.00 60 1007.0
20260904140104 67 169 1.0 12.0 0.00 0.00 0.00 60 1006.9
20260904134558 66 129 1.0 5.0 0.00 0.00 0.00 60 1006.7
20260904133055 63 149 0.0 1.0 0.00 0.00 0.00 59 1006.7
20260904131617 62 122 1.0 3.0 0.00 0.00 0.00 58 1006.6
20260904130049 62 159 0.0 2.0 0.00 0.00 0.00 57 1006.4
20260904124550 62 222 0.0 4.0 0.00 0.00 0.00 57 1006.3
20260904123101 63 201 0.0 9.0 0.00 0.00 0.00 57 1006.0
20260904121540 63 177 1.0 10.0 0.00 0.00 0.00 56 1006.0
20260904120040 63 146 0.0 4.0 0.00 0.00 0.00 55 1006.1
20260904114543 63 205 0.0 3.0 0.00 0.00 0.00 54 1006.0
20260904113034 62 172 0.0 3.0 0.00 0.00 0.00 53 1006.0
20260904111533 62 118 0.0 1.0 0.00 0.00 0.00 52 1006.1
20260904110034 63 215 0.0 1.0 0.00 0.00 0.00 51 1006.0
20260904104523 63 144 0.0 3.0 0.00 0.00 0.00 50 1006.0